Location: Gleizolles
(44.4833°N, 6.7667°E)
Time: 10:57:32
(UTC+00:00)

A-11 Canister half - Pass Details

Date: 02 July 2024
Orbit: 1524 x 1684 km, 47.3° (Epoch: 18 May)

Event Time Altitude Azimuth Distance (km) Brightness Sun altitude
Rises 14:16:12 0° 288° (WNW) 4,725 12.0 51.1°
Reaches altitude 10° 14:19:17 10° 289° (WNW) 3,725 11.7 50.6°
Maximum altitude 14:28:41 87° 202° (SSW) 1,532 10.0 49.0°
Drops below altitude 10° 14:37:59 10° 114° (ESE) 3,690 10.8 47.4°
Sets 14:41:01 0° 115° (ESE) 4,678 11.2 46.9°
